Al Hoceima, Morocco

9:49 PM WET on March 24, 2017 (GMT +0000)
Cherif Al Idrissi

Weather History for GMTA - November, 2012

Change the Weather History Date:

Friday, November 2, 2012

  Actual Average Record
Temperature  
Mean Temperature 68 °F -  
Max Temperature 73 °F 66 °F 77 °F (1998)
Min Temperature 64 °F 52 °F 50 °F (2007)
Cooling Degree Days 4    
Growing Degree Days 18 (Base 50)    
Moisture  
Dew Point 61 °F    
Average Humidity 75    
Maximum Humidity 83    
Minimum Humidity 67    
Precipitation  
Precipitation 0.00 in - - ()
Sea Level Pressure  
Sea Level Pressure 30.00 in    
Wind  
Wind Speed 3 mph ()    
Max Wind Speed 9 mph    
Max Gust Speed -    
Visibility 6.1 miles    
Events      
Averages and records for this station are not official NWS values.
T = Trace of Precipitation, MM = Missing Value Source: Averaged Metar Reports

Daily Weather History Graph

Daily Weather History Graph

Search for Another Location

Airport or City:

Trip Planner

Search our weather history database for the weather conditions in past years. The results will help you decide how hot, cold, wet, or windy it might be!

Date:

Astronomy

Nov. 02, 2012 Rise Set
Actual Time 6:37 AM WET 5:19 PM WET
Civil Twilight 6:11 AM WET 5:45 PM WET
Nautical Twilight 5:41 AM WET 6:15 PM WET
Astronomical Twilight 5:11 AM WET 6:45 PM WET
Moon 7:59 PM WET (11/2) 9:42 AM WET (11/2)
Length of Visible Light 11h 34m
Length of Day
10h 41m
Waning Gibbous, 88% of the Moon is Illuminated
Nov 2
Waning Gibbous
Nov 7
Last Quarter
Nov 13
New
Nov 20
First Quarter
Nov 28
Full

Hourly Weather History & Observations

Time (WET) Temp. Dew Point Humidity Pressure Visibility Wind Dir Wind Speed Gust Speed Precip Events Conditions
6:00 AM 65 °F 57 °F 68% 29.99 in 6 mi SSW 2.3 mph - -   Partly Cloudy
6:00 AM 66.2 °F 59.0 °F 78% 29.92 in 6.2 mi SSW 2.3 mph - N/A   Partly Cloudy
7:00 AM 64.4 °F 59.0 °F 83% 30.01 in 6.2 mi West 2.3 mph - N/A   Scattered Clouds
8:00 AM 68.0 °F 60.8 °F 78% 30.04 in 6.2 mi SSE 2.3 mph - N/A   Partly Cloudy
9:00 AM 70 °F 62 °F 68% 30.06 in 6 mi South 4.6 mph - -   Scattered Clouds
9:00 AM 69.8 °F 62.6 °F 78% 30.04 in 6.2 mi South 4.6 mph - N/A   Scattered Clouds
10:00 AM 71.6 °F 60.8 °F 69% 30.06 in 6.2 mi NE 4.6 mph - N/A   Scattered Clouds
11:00 AM 71.6 °F 62.6 °F 73% 30.04 in 6.2 mi SE 6.9 mph - N/A   Partly Cloudy
12:00 PM 70 °F 61 °F 67% 30.05 in 6 mi NNE 6.9 mph - -   Scattered Clouds
12:00 PM 69.8 °F 60.8 °F 73% 30.04 in 6.2 mi NNE 6.9 mph - N/A   Scattered Clouds
1:00 PM 69.8 °F 60.8 °F 73% 30.01 in 6.2 mi West 4.6 mph - N/A   Scattered Clouds
2:00 PM 69.8 °F 60.8 °F 73% 29.98 in 6.2 mi NNE 6.9 mph - N/A   Scattered Clouds
3:00 PM 69 °F 61 °F 69% 30.00 in 6 mi NNW 9.2 mph - -   Mostly Cloudy
3:00 PM 69.8 °F 60.8 °F 73% 29.98 in 6.2 mi NNW 9.2 mph - N/A   Scattered Clouds
4:00 PM 68.0 °F 60.8 °F 78% 29.98 in 6.2 mi NW 4.6 mph - N/A   Mostly Cloudy
5:00 PM 66.2 °F 59.0 °F 78% 29.98 in 6.2 mi SW 2.3 mph - N/A   Mostly Cloudy
6:00 PM 68 °F 60 °F 69% 29.99 in 6 mi Calm Calm - -   Mostly Cloudy
6:00 PM 68.0 °F 60.8 °F 78% 29.98 in 6.2 mi Calm Calm - N/A   Mostly Cloudy
7:00 PM 68.0 °F 60.8 °F 78% 29.98 in 6.2 mi SSW 2.3 mph - N/A   Mostly Cloudy
8:00 PM 66.2 °F 60.8 °F 83% 29.98 in 6.2 mi ESE 2.3 mph - N/A   Mostly Cloudy
9:00 PM 67 °F 60 °F 73% 29.99 in 6 mi SSW 2.3 mph - -   Overcast
9:00 PM 66.2 °F 60.8 °F 83% 29.98 in 6.2 mi SSW 2.3 mph - N/A   Mostly Cloudy